AirNav   Everest Fuels
 
 634 users online  

KSLI Los Alamitos Army Airfield
Los Alamitos, California, USA

GOING TO LOS ALAMITOS?


FAA INFORMATION EFFECTIVE 23 MAY 2019

Location

FAA Identifier: SLI
Lat/Long: 33-47-24.1080N / 118-03-05.1120W
33-47.401800N / 118-03.085200W
33.7900300 / -118.0514200
(estimated)
Elevation: 35.5 ft. / 10.8 m (surveyed)
Variation: 12E (2020)
From city: 1 mile SE of LOS ALAMITOS, CA
Time zone: UTC -7 (UTC -8 during Standard Time)
Zip code: 90720

Airport Operations

Airport use: Private use. Permission required prior to landing
Activation date: 04/1944
Control tower: yes
ARTCC: LOS ANGELES CENTER
FSS: HAWTHORNE FLIGHT SERVICE STATION
NOTAMs facility: SLI (NOTAM-D service available)
Attendance: TUE-THU 1400-0500Z++, ALL FRI 1400-0200Z++, ALL SAT-SUN 1530-2300Z++, ALL MON 1400-0200Z++
CLSD HOL. RSTD: PPR CTC AFLD OPS DSN 972-2571, C562-795-2571; HTTP://WWW.CALGUARD.CA.GOV/AA-LOSAI.
Segmented circle: no
Lights: SS-SR
Beacon: white-white-green (lighted military airport)
Operates sunset to sunrise.

Airport Communications

ATIS: 118.875 379.975
LOS ALAMITOS GROUND: 126.95 257.95 [1500-0500Z++ TUE-THU, 1600-0000Z++ FRI-MON; CLSD HOL]
LOS ALAMITOS TOWER: 123.85 251.15 [1500-0500Z++ TUE-THU, 1600-0000Z++ FRI-MON; CLSD HOL]
SOCAL APPROACH: 125.35
SOCAL DEPARTURE: 125.35
AR OPS: 139.05 230.9
EMERG: 243.0
HAWWC DP: 125.35
OPS: 126.2 ;AFLD OPS ADVSY SVC 233.8 ;ARNG AASF 237.2 ;AFLD OPS ADVSY SVC 41.5 ;ARNG AASF
RADAR: 124.75 127.95 230.8 231.0 234.1
WX ASOS at LGB (5 nm W): PHONE 562-424-0572
WX ASOS at FUL (6 nm NE): PHONE 714-870-1372
WX AWOS-3PT at CPM (11 nm NW): 127.150 (310-631-4958)
WX ASOS at SNA (11 nm SE): PHONE 714-424-0590
WX ASOS at HHR (16 nm NW): PHONE 310-973-8930
WX AWOS-3PT at EMT (18 nm N): 118.75 ((626) 444-1107)
WX ASOS at LAX (20 nm NW): PHONE 310-568-1486
  • FOR CLNC DEL WHEN ATCT CLSD CALL SOCAL APCH (800) 448-3724.

Nearby radio navigation aids

VOR radial/distance  VOR name  Freq  Var
SLI at fieldSEAL BEACH VORTAC115.7015E
ELBr279/17.4EL TORO VOR/DME117.2014E
LAXr099/20.8LOS ANGELES VORTAC113.6015E
POMr202/21.7POMONA VORTAC110.4015E
SMOr108/24.1SANTA MONICA VOR/DME110.8015E
PDZr238/27.1PARADISE VORTAC112.2015E
SXCr021/31.0SANTA CATALINA VORTAC111.4015E
RALr238/(31.6)RIVERSIDE VOR112.4014E
VNYr125/34.0VAN NUYS VOR/DME113.1015E

Airport Services

Fuel available: A1+ JET-B+
Oil available: AFLD OPS ADVSY 126.2/237.2 WHEN LOS ALAMITOS TWR CLSD.

Runway Information

Runway 4R/22L

Dimensions: 7999 x 200 ft. / 2438 x 61 m
Surface: asphalt/concrete
Weight bearing capacity: 
PCN 36 /R/C/W/T
Runway edge lights: high intensity
HIRL ELEV 1' AND LCTD 5' FR EDGE OF RWY.
RUNWAY 4R  RUNWAY 22L
Latitude: 33-47.026767N33-47.783300N
Longitude: 118-03.613500W118-02.319133W
Elevation: 21.2 ft.35.5 ft.
Traffic pattern: leftleft
Visual slope indicator: 4-light PAPI on left (3.00 degrees glide path)
Approach lights: SALSF
Runway end identifier lights: noyes
Centerline lights: yesyes
Touchdown point: yes, no lightsyes, no lights

Runway 4L/22R

Dimensions: 5901 x 150 ft. / 1799 x 46 m
Surface: PEM
Weight bearing capacity: 
PCN 36 /F/C/W/T
Runway edge lights: medium intensity
RUNWAY 4L  RUNWAY 22R
Latitude: 33-47.118333N33-47.676383N
Longitude: 118-03.723767W118-02.768750W
Elevation: 20.0 ft.26.9 ft.
Traffic pattern: leftleft
Touchdown point: yes, no lightsyes, no lights

Airport Ownership and Management from official FAA records

Ownership: U.S. Army
Owner: US ARMY
AASF, CAARNG, 4612 DOOLITTLE AVE
LOS ALAMITOS, CA 90720
Phone 562-795-2571
Manager: BASE OPS
LOS ALAMITOS, CA 90720
Phone 562-795-2571

Additional Remarks

RWY-LGTS: RWY 22L - SF.
MISC - WINDS ARE ACCURATE TO WITHIN PLUS OR MINUS 4 KNOTS.
MISC: TO EXCEED WT BRG CAP CTC AFLD OPS. SEE FLIP AP/1 RTE AND AREA RSTD AND SUPPLEMENT ARPT RMK.
ARNG AASF OPS- OPR 1530-2330Z++ MON-FRI; EXC HOL. DSN 972-2006, C562-795-2006. HTTP://WWW.CALGUARD.CA.GOV/AASF1.
RSTD: FOR SPECIAL AFTER HRS LNDG AND AFLD LIGHTING REQUESTS FOR ACFT WEIGHING UNDER 14,500 LBS, CALL AFLD OPS AT 562-795-2571.
RWY-17/35 CLSD (2500X150 ASP).
JASU - 4(E3) 2(AGPU) 2(AM32A-60B-WO DC PWR).
FUEL - J8
NS ABTMT - PRO IN EFF. ALL DEP RQR BRIEFINGS.

Instrument Procedures

NOTE: All procedures below are presented as PDF files. If you need a reader for these files, you should download the free Adobe Reader.

NOT FOR NAVIGATION. Please procure official charts for flight.
FAA instrument procedures published for use from 23 May 2019 at 0901Z to 20 June 2019 at 0900Z.

 
STARs - Standard Terminal Arrivals
KAYOH SEVEN   download (303KB)
 
IAPs - Instrument Approach Procedures
RNAV (GPS) RWY 22L   download (53KB)
VOR OR TACAN RWY 22L   download (139KB)
Radar Approach Procedures available   download (74KB)
 
Departure Procedures
HAWWC THREE (RNAV)   download (172KB)
NOTE: Special Take-Off Minimums/Departure Procedures apply   download (215KB)

Other nearby airports with instrument procedures:

KLGB - Long Beach Airport (Daugherty Field) (5 nm W)
KFUL - Fullerton Municipal Airport (6 nm NE)
KSNA - John Wayne-Orange County Airport (11 nm SE)
KTOA - Zamperini Field Airport (14 nm W)
KHHR - Jack Northrop Field/Hawthorne Municipal Airport (16 nm NW)
KEMT - San Gabriel Valley Airport (18 nm N)
KLAX - Los Angeles International Airport (20 nm NW)
 
Loc | Ops | Rwys | IFR | FBO | Links
Com | Nav | Svcs | Stats | Notes

San Bernardino International Airport Authority
 
Area around KSLI (Los Alamitos Army Airfield)
 
Road maps at: MapQuest Bing Google
 
Aerial photo
WARNING: Photo may not be current or correct
Aerial photo of KSLI (Los Alamitos Army Airfield)
Photo courtesy of FocalFlight.com
Photo taken 01-Nov-2015
looking north.

Do you have a better or more recent aerial photo of Los Alamitos Army Airfield that you would like to share? If so, please send us your photo.

 
Sectional chart

 
Airport diagram
Diagram of KSLI (Los Alamitos Army Airfield)
Download PDF
of official airport diagram from the FAA

 
Airport distance calculator
Flying to Los Alamitos Army Airfield? Find the distance to fly.

From to KSLI

Sunrise and sunset
Times for 26-May-2019
 Local
(UTC-7)
 Zulu
(UTC)
Morning civil twilight05:1712:17
Sunrise05:4612:46
Sunset19:5302:53
Evening civil twilight20:2103:21

Current date and time
Zulu (UTC)  27-May-2019 04:29:43
Local (UTC-7)  26-May-2019 21:29:43
 
METAR
KSLI 
2nm SE 
270358Z AUTO 26004KT 10SM FEW013 SCT055 OVC080 13/12 A2997 RMK AO2 SLP152 T01310120
KLGB 
5nm W 
270353Z 26006KT 10SM SCT021 BKN055 OVC085 14/11 A2997 RMK AO2 SLP149 T01440111
KFUL 
6nm NE 
270353Z VRB03KT 10SM SCT050 OVC080 13/11 A2997 RMK AO2 RAE06 SLP146 P0000 T01330111
KSNA 
12nm SE 
270420Z 23003KT 10SM SCT014 BKN055 OVC085 14/11 A2998 RMK AO2 T01390111
KTOA 
13nm W 
270247Z 25007G15KT 10SM FEW008 SCT046 13/12 A2996
KHHR 
16nm NW 
270418Z 28005KT 10SM FEW018 SCT028 OVC080 14/09 A2997 RMK AO2 T01440089
KEMT 
17nm N 
270145Z 00000KT 4SM -RA BKN015 OVC035 13/12 A2995
KCQT 
18nm NW 
270347Z AUTO 29003KT 10SM SCT025 OVC070 13/09 A2996 RMK AO2 SLP145 T01330094
KLAX 
19nm NW 
270410Z 28015KT 10SM SCT018 BKN080 14/09 A2997 RMK AO2 RAE02 P0000 T01390089
TAF
KSLI 
2nm SE 
262107Z 2621/2803 24009KT 9999 BKN050 QNH2996INS TEMPO 2621/2702 21012G18KT 8000 -SHRA OVC015 BECMG 2705/2706 VRB06KT 9999 BKN030 QNH2996INS BECMG 2713/2714 VRB06KT 9000 BR SCT025 QNH2996INS BECMG 2715/2716 VRB06KT 9999 NSW FEW018 QNH2997INS BECMG 2719/2720 24009KT 9999 FEW050 QNH2999INS TX19/2621Z TN12/2713Z
KLGB 
5nm W 
262215Z 2622/2718 19008KT P6SM OVC050 FM270000 23012KT P6SM VCSH BKN025 BKN060 FM270300 30010KT P6SM SCT060 FM271200 VRB03KT P6SM SCT150
KSNA 
12nm SE 
270214Z 2702/2724 23011KT P6SM VCSH SCT025 BKN035 TEMPO 2702/2705 2SM -SHRA BKN015 FM270500 24005KT P6SM BKN025 BKN045 FM271100 23005KT P6SM SCT025 FM271800 22008KT P6SM SCT050
KLAX 
19nm NW 
270108Z 2701/2806 25011KT P6SM VCSH FEW035 OVC060 TEMPO 2701/2702 2SM SHRA BR BKN030 FM270200 27015G25KT P6SM VCSH BKN050 FM270500 27015KT P6SM OVC050 FM270800 28011KT P6SM BKN050 FM271200 30008KT P6SM SCT050 FM271800 26013KT P6SM BKN050 FM272100 26017G23KT P6SM SCT050 SCT250 FM280300 27010KT P6SM SCT250
NOTAMs
Click for the latest NOTAMs
NOTAMs are issued by the DoD/FAA and will open in a separate window not controlled by AirNav.

 

 
 

Would you like to see your business listed on this page?

 If your business provides an interesting product or service to pilots, flight crews, aircraft, or users of the Los Alamitos Army Airfield, you should consider listing it here.  To start the listing process, click on the button below
 
Add a business
 

Other Pages about Los Alamitos Army Airfield

www.aircav.com/sli.html
 
Update a link
 
Copyright © AirNav, LLC. All rights reserved. Privacy Policy  Contact